This is the latest recevied weather packets stored in our database for station/object N2OCK. If no packets are shown the sender has not sent any weather packets the latest 10 day(s).
| Time | Temp. | Humidity | Pressure | Rain* | Wind** | Luminosity | Snow |
|---|---|---|---|---|---|---|---|
| 1777763566 | 14.44° C | 60% | 1010.4 hPa | 0 mm | - | 36 W/m² | - |
| 1777763264 | 14.44° C | 60% | 1010.4 hPa | 0 mm | - | 44 W/m² | - |
| 1777762962 | 13.89° C | 59% | 1010.3 hPa | 0 mm | - | 53 W/m² | - |
| 1777762658 | 13.33° C | 62% | 1010.2 hPa | 0 mm | - | 61 W/m² | - |
| 1777762355 | 13.33° C | 63% | 1010.2 hPa | 0 mm | - | 66 W/m² | - |
| 1777762052 | 13.33° C | 63% | 1010.1 hPa | 0 mm | - | 58 W/m² | - |
| 1777761748 | 13.33° C | 64% | 1010.2 hPa | 0 mm | - | 61 W/m² | - |
| 1777761446 | 13.33° C | 63% | 1010.3 hPa | 0 mm | - | 60 W/m² | - |
| 1777761144 | 13.33° C | 63% | 1010.1 hPa | 0 mm | - | 89 W/m² | - |
| 1777760841 | 13.33° C | 64% | 1010.1 hPa | 0 mm | - | 62 W/m² | - |
| 1777760538 | 13.33° C | 64% | 1010.3 hPa | 0 mm | - | 72 W/m² | - |
| 1777760234 | 13.89° C | 64% | 1010 hPa | 0 mm | - | 61 W/m² | - |
| 1777759925 | 13.89° C | 62% | 1010.2 hPa | 0 mm | - | 77 W/m² | - |
| 1777759621 | 13.89° C | 62% | 1010.2 hPa | 0 mm | - | 114 W/m² | - |
| 1777759318 | 13.89° C | 64% | 1010.2 hPa | 0 mm | - | 167 W/m² | - |
| 1777759015 | 13.89° C | 63% | 1010.1 hPa | 0 mm | - | 97 W/m² | - |
| 1777758712 | 13.89° C | 65% | 1010.2 hPa | 0 mm | - | 112 W/m² | - |
| 1777758409 | 13.89° C | 65% | 1010.3 hPa | 0 mm | - | 114 W/m² | - |
| 1777758106 | 13.89° C | 65% | 1010.2 hPa | 0 mm | - | 126 W/m² | - |
| 1777757803 | 13.89° C | 66% | 1010.2 hPa | 0 mm | - | 134 W/m² | - |
| 1777757500 | 13.89° C | 65% | 1010.1 hPa | 0 mm | - | 138 W/m² | - |
| 1777757199 | 14.44° C | 64% | 1010.1 hPa | 0 mm | - | 146 W/m² | - |
| 1777756897 | 14.44° C | 63% | 1010 hPa | 0 mm | - | 187 W/m² | - |
| 1777756592 | 13.89° C | 65% | 1010 hPa | 0 mm | - | 245 W/m² | - |
| 1777756289 | 13.89° C | 64% | 1010.1 hPa | 0 mm | - | 205 W/m² | - |
* Rain latest hour (hover to see other rain measurements)
** Current wind speed in m/s (hover to see current wind gust speed)